Year,Month,Day,Hour,Minute,Value (Times are PST for temperature in C)
2018,04,04,00,00,5.60
2018,04,04,00,01,5.60
2018,04,04,00,02,5.60
2018,04,04,00,03,5.60
2018,04,04,00,04,5.60
2018,04,04,00,05,5.60
2018,04,04,00,06,5.60
2018,04,04,00,07,5.60
2018,04,04,00,08,5.60
2018,04,04,00,09,5.60
2018,04,04,00,10,5.60
2018,04,04,00,11,5.50
2018,04,04,00,12,5.50
2018,04,04,00,13,5.50
2018,04,04,00,14,5.40
2018,04,04,00,15,5.40
2018,04,04,00,16,5.40
2018,04,04,00,17,5.40
2018,04,04,00,18,5.30
2018,04,04,00,19,5.30
2018,04,04,00,20,5.30
2018,04,04,00,21,5.30
2018,04,04,00,22,5.30
2018,04,04,00,23,5.30
2018,04,04,00,24,5.30
2018,04,04,00,25,5.30
2018,04,04,00,26,5.30
2018,04,04,00,27,5.30
2018,04,04,00,28,5.30
2018,04,04,00,29,5.30
2018,04,04,00,30,5.30
2018,04,04,00,31,5.30
2018,04,04,00,32,5.30
2018,04,04,00,33,5.30
2018,04,04,00,34,5.40
2018,04,04,00,35,5.40
2018,04,04,00,36,5.40
2018,04,04,00,37,5.40
2018,04,04,00,38,5.50
2018,04,04,00,39,5.50
2018,04,04,00,40,5.50
2018,04,04,00,41,5.60
2018,04,04,00,42,5.60
2018,04,04,00,43,5.60
2018,04,04,00,44,5.60
2018,04,04,00,45,5.60
2018,04,04,00,46,5.60
2018,04,04,00,47,5.60
2018,04,04,00,48,5.60
2018,04,04,00,49,5.60
2018,04,04,00,50,5.60
2018,04,04,00,51,5.60
2018,04,04,00,52,5.60
2018,04,04,00,53,5.60
2018,04,04,00,54,5.60
2018,04,04,00,55,5.60
2018,04,04,00,56,5.60
2018,04,04,00,57,5.60
2018,04,04,00,58,5.60
2018,04,04,00,59,5.60
2018,04,04,01,00,5.60
2018,04,04,01,01,5.60
2018,04,04,01,02,5.60
2018,04,04,01,03,5.70
2018,04,04,01,04,5.70
2018,04,04,01,05,5.70
2018,04,04,01,06,5.70
2018,04,04,01,07,5.70
2018,04,04,01,08,5.70
2018,04,04,01,09,5.70
2018,04,04,01,10,5.70
2018,04,04,01,11,5.70
2018,04,04,01,12,5.70
2018,04,04,01,13,5.60
2018,04,04,01,14,5.60
2018,04,04,01,15,5.60
2018,04,04,01,16,5.60
2018,04,04,01,17,5.60
2018,04,04,01,18,5.60
2018,04,04,01,19,5.60
2018,04,04,01,20,5.60
2018,04,04,01,21,5.60
2018,04,04,01,22,5.70
2018,04,04,01,23,5.70
2018,04,04,01,24,5.70
2018,04,04,01,25,5.70
2018,04,04,01,26,5.70
2018,04,04,01,27,5.70
2018,04,04,01,28,5.70
2018,04,04,01,29,5.70
2018,04,04,01,30,5.70
2018,04,04,01,31,5.70
2018,04,04,01,32,5.70
2018,04,04,01,33,5.70
2018,04,04,01,34,5.70
2018,04,04,01,35,5.70
2018,04,04,01,36,5.70
2018,04,04,01,37,5.70
2018,04,04,01,38,5.70
2018,04,04,01,39,5.70
2018,04,04,01,40,5.70
2018,04,04,01,41,5.70
2018,04,04,01,42,5.80
2018,04,04,01,43,5.80
2018,04,04,01,44,5.70
2018,04,04,01,45,5.70
2018,04,04,01,46,5.70
2018,04,04,01,47,5.70
2018,04,04,01,48,5.70
2018,04,04,01,49,5.70
2018,04,04,01,50,5.70
2018,04,04,01,51,5.70
2018,04,04,01,52,5.70
2018,04,04,01,53,5.70
2018,04,04,01,54,5.70
2018,04,04,01,55,5.70
2018,04,04,01,56,5.70
2018,04,04,01,57,5.70
2018,04,04,01,58,5.80
2018,04,04,01,59,5.80
2018,04,04,02,00,5.70
2018,04,04,02,01,5.70
2018,04,04,02,02,5.70
2018,04,04,02,03,5.70
2018,04,04,02,04,5.70
2018,04,04,02,05,5.70
2018,04,04,02,06,5.70
2018,04,04,02,07,5.70
2018,04,04,02,08,5.70
2018,04,04,02,09,5.70
2018,04,04,02,10,5.70
2018,04,04,02,11,5.70
2018,04,04,02,12,5.70
2018,04,04,02,13,5.70
2018,04,04,02,14,5.60
2018,04,04,02,15,5.60
2018,04,04,02,16,5.60
2018,04,04,02,17,5.60
2018,04,04,02,18,5.50
2018,04,04,02,19,5.50
2018,04,04,02,20,5.50
2018,04,04,02,21,5.50
2018,04,04,02,22,5.40
2018,04,04,02,23,5.40
2018,04,04,02,24,5.40
2018,04,04,02,25,5.40
2018,04,04,02,26,5.40
2018,04,04,02,27,5.30
2018,04,04,02,28,5.30
2018,04,04,02,29,5.30
2018,04,04,02,30,5.30
2018,04,04,02,31,5.30
2018,04,04,02,32,5.30
2018,04,04,02,33,5.30
2018,04,04,02,34,5.30
2018,04,04,02,35,5.20
2018,04,04,02,36,5.20
2018,04,04,02,37,5.20
2018,04,04,02,38,5.20
2018,04,04,02,39,5.20
2018,04,04,02,40,5.20
2018,04,04,02,41,5.20
2018,04,04,02,42,5.20
2018,04,04,02,43,5.20
2018,04,04,02,44,5.20
2018,04,04,02,45,5.20
2018,04,04,02,46,5.20
2018,04,04,02,47,5.20
2018,04,04,02,48,5.20
2018,04,04,02,49,5.20
2018,04,04,02,50,5.20
2018,04,04,02,51,5.20
2018,04,04,02,52,5.20
2018,04,04,02,53,5.20
2018,04,04,02,54,5.20
2018,04,04,02,55,5.20
2018,04,04,02,56,5.10
2018,04,04,02,57,5.10
2018,04,04,02,58,5.00
2018,04,04,02,59,5.00
2018,04,04,03,00,5.00
2018,04,04,03,01,5.00
2018,04,04,03,02,5.00
2018,04,04,03,03,4.90
2018,04,04,03,04,4.90
2018,04,04,03,05,4.90
2018,04,04,03,06,4.90
2018,04,04,03,07,4.90
2018,04,04,03,08,4.90
2018,04,04,03,09,4.90
2018,04,04,03,10,4.90
2018,04,04,03,11,4.90
2018,04,04,03,12,4.80
2018,04,04,03,13,4.80
2018,04,04,03,14,4.80
2018,04,04,03,15,4.80
2018,04,04,03,16,4.80
2018,04,04,03,17,4.80
2018,04,04,03,18,4.80
2018,04,04,03,19,4.80
2018,04,04,03,20,4.80
2018,04,04,03,21,4.90
2018,04,04,03,22,4.90
2018,04,04,03,23,4.90
2018,04,04,03,24,4.90
2018,04,04,03,25,4.90
2018,04,04,03,26,4.90
2018,04,04,03,27,4.80
2018,04,04,03,28,4.80
2018,04,04,03,29,4.80
2018,04,04,03,30,4.80
2018,04,04,03,31,4.80
2018,04,04,03,32,4.80
2018,04,04,03,33,4.70
2018,04,04,03,34,4.70
2018,04,04,03,35,4.70
2018,04,04,03,36,4.70
2018,04,04,03,37,4.80
2018,04,04,03,38,4.80
2018,04,04,03,39,4.80
2018,04,04,03,40,4.80
2018,04,04,03,41,4.80
2018,04,04,03,42,4.80
2018,04,04,03,43,4.80
2018,04,04,03,44,4.80
2018,04,04,03,45,4.70
2018,04,04,03,46,4.70
2018,04,04,03,47,4.70
2018,04,04,03,48,4.60
2018,04,04,03,49,4.60
2018,04,04,03,50,4.60
2018,04,04,03,51,4.50
2018,04,04,03,52,4.50
2018,04,04,03,53,4.50
2018,04,04,03,54,4.50
2018,04,04,03,55,4.50
2018,04,04,03,56,4.50
2018,04,04,03,57,4.40
2018,04,04,03,58,4.40
2018,04,04,03,59,4.40
2018,04,04,04,00,4.40
2018,04,04,04,01,4.40
2018,04,04,04,02,4.40
2018,04,04,04,03,4.40
2018,04,04,04,04,4.40
2018,04,04,04,05,4.40
2018,04,04,04,06,4.40
2018,04,04,04,07,4.40
2018,04,04,04,08,4.40
2018,04,04,04,09,4.40
2018,04,04,04,10,4.40
2018,04,04,04,11,4.40
2018,04,04,04,12,4.40
2018,04,04,04,13,4.40
2018,04,04,04,14,4.40
2018,04,04,04,15,4.40
2018,04,04,04,16,4.40
2018,04,04,04,17,4.40
2018,04,04,04,18,4.50
2018,04,04,04,19,4.50
2018,04,04,04,20,4.50
2018,04,04,04,21,4.60
2018,04,04,04,22,4.60
2018,04,04,04,23,4.60
2018,04,04,04,24,4.60
2018,04,04,04,25,4.60
2018,04,04,04,26,4.60
2018,04,04,04,27,4.60
2018,04,04,04,28,4.70
2018,04,04,04,29,4.70
2018,04,04,04,30,4.70
2018,04,04,04,31,4.70
2018,04,04,04,32,4.60
2018,04,04,04,33,4.60
2018,04,04,04,34,4.60
2018,04,04,04,35,4.50
2018,04,04,04,36,4.50
2018,04,04,04,37,4.50
2018,04,04,04,38,4.40
2018,04,04,04,39,4.40
2018,04,04,04,40,4.40
2018,04,04,04,41,4.40
2018,04,04,04,42,4.40
2018,04,04,04,43,4.30
2018,04,04,04,44,4.30
2018,04,04,04,45,4.30
2018,04,04,04,46,4.30
2018,04,04,04,47,4.30
2018,04,04,04,48,4.30
2018,04,04,04,49,4.30
2018,04,04,04,50,4.30
2018,04,04,04,51,4.30
2018,04,04,04,52,4.30
2018,04,04,04,53,4.30
2018,04,04,04,54,4.30
2018,04,04,04,55,4.30
2018,04,04,04,56,4.30
2018,04,04,04,57,4.30
2018,04,04,04,58,4.30
2018,04,04,04,59,4.30
2018,04,04,05,00,4.30
2018,04,04,05,01,4.30
2018,04,04,05,02,4.30
2018,04,04,05,03,4.30
2018,04,04,05,04,4.30
2018,04,04,05,05,4.30
2018,04,04,05,06,4.30
2018,04,04,05,07,4.30
2018,04,04,05,08,4.30
2018,04,04,05,09,4.30
2018,04,04,05,10,4.30
2018,04,04,05,11,4.30
2018,04,04,05,12,4.30
2018,04,04,05,13,4.30
2018,04,04,05,14,4.30
2018,04,04,05,15,4.30
2018,04,04,05,16,4.30
2018,04,04,05,17,4.30
2018,04,04,05,18,4.40
2018,04,04,05,19,4.40
2018,04,04,05,20,4.40
2018,04,04,05,21,4.40
2018,04,04,05,22,4.40
2018,04,04,05,23,4.40
2018,04,04,05,24,4.40
2018,04,04,05,25,4.40
2018,04,04,05,26,4.40
2018,04,04,05,27,4.40
2018,04,04,05,28,4.40
2018,04,04,05,29,4.40
2018,04,04,05,30,4.40
2018,04,04,05,31,4.40
2018,04,04,05,32,4.40
2018,04,04,05,33,4.40
2018,04,04,05,34,4.40
2018,04,04,05,35,4.40
2018,04,04,05,36,4.40
2018,04,04,05,37,4.30
2018,04,04,05,38,4.30
2018,04,04,05,39,4.30
2018,04,04,05,40,4.30
2018,04,04,05,41,4.30
2018,04,04,05,42,4.30
2018,04,04,05,43,4.30
2018,04,04,05,44,4.30
2018,04,04,05,45,4.30
2018,04,04,05,46,4.30
2018,04,04,05,47,4.30
2018,04,04,05,48,4.30
2018,04,04,05,49,4.30
2018,04,04,05,50,4.30
2018,04,04,05,51,4.30
2018,04,04,05,52,4.30
2018,04,04,05,53,4.30
2018,04,04,05,54,4.30
2018,04,04,05,55,4.30
2018,04,04,05,56,4.30
2018,04,04,05,57,4.30
2018,04,04,05,58,4.30
2018,04,04,05,59,4.30
2018,04,04,06,00,4.30
2018,04,04,06,01,4.30
2018,04,04,06,02,4.30
2018,04,04,06,03,4.30
2018,04,04,06,04,4.30
2018,04,04,06,05,4.30
2018,04,04,06,06,4.30
2018,04,04,06,07,4.30
2018,04,04,06,08,4.30
2018,04,04,06,09,4.40
2018,04,04,06,10,4.40
2018,04,04,06,11,4.40
2018,04,04,06,12,4.40
2018,04,04,06,13,4.40
2018,04,04,06,14,4.40
2018,04,04,06,15,4.40
2018,04,04,06,16,4.40
2018,04,04,06,17,4.40
2018,04,04,06,18,4.40
2018,04,04,06,19,4.40
2018,04,04,06,20,4.40
2018,04,04,06,21,4.40
2018,04,04,06,22,4.40
2018,04,04,06,23,4.40
2018,04,04,06,24,4.40
2018,04,04,06,25,4.40
2018,04,04,06,26,4.40
2018,04,04,06,27,4.40
2018,04,04,06,28,4.40
2018,04,04,06,29,4.40
2018,04,04,06,30,4.40
2018,04,04,06,31,4.40
2018,04,04,06,32,4.40
2018,04,04,06,33,4.40
2018,04,04,06,34,4.40
2018,04,04,06,35,4.40
2018,04,04,06,36,4.40
2018,04,04,06,37,4.30
2018,04,04,06,38,4.30
2018,04,04,06,39,4.30
2018,04,04,06,40,4.30
2018,04,04,06,41,4.30
2018,04,04,06,42,4.30
2018,04,04,06,43,4.30
2018,04,04,06,44,4.30
2018,04,04,06,45,4.30
2018,04,04,06,46,4.30
2018,04,04,06,47,4.30
2018,04,04,06,48,4.30
2018,04,04,06,49,4.30
2018,04,04,06,50,4.20
2018,04,04,06,51,4.20
2018,04,04,06,52,4.20
2018,04,04,06,53,4.20
2018,04,04,06,54,4.30
2018,04,04,06,55,4.30
2018,04,04,06,56,4.30
2018,04,04,06,57,4.30
2018,04,04,06,58,4.30
2018,04,04,06,59,4.30
2018,04,04,07,00,4.30
2018,04,04,07,01,4.30
2018,04,04,07,02,4.30
2018,04,04,07,03,4.40
2018,04,04,07,04,4.40
2018,04,04,07,05,4.40
2018,04,04,07,06,4.30
2018,04,04,07,07,4.30
2018,04,04,07,08,4.30
2018,04,04,07,09,4.30
2018,04,04,07,10,4.30
2018,04,04,07,11,4.30
2018,04,04,07,12,4.30
2018,04,04,07,13,4.30
2018,04,04,07,14,4.30
2018,04,04,07,15,4.30
2018,04,04,07,16,4.30
2018,04,04,07,17,4.30
2018,04,04,07,18,4.30
2018,04,04,07,19,4.30
2018,04,04,07,20,4.30
2018,04,04,07,21,4.30
2018,04,04,07,22,4.30
2018,04,04,07,23,4.30
2018,04,04,07,24,4.30
2018,04,04,07,25,4.30
2018,04,04,07,26,4.30
2018,04,04,07,27,4.30
2018,04,04,07,28,4.30
2018,04,04,07,29,4.30
2018,04,04,07,30,4.30
2018,04,04,07,31,4.20
2018,04,04,07,32,4.20
2018,04,04,07,33,4.20
2018,04,04,07,34,4.20
2018,04,04,07,35,4.20
2018,04,04,07,36,4.20
2018,04,04,07,37,4.30
2018,04,04,07,38,4.30
2018,04,04,07,39,4.30
2018,04,04,07,40,4.30
2018,04,04,07,41,4.30
2018,04,04,07,42,4.30
2018,04,04,07,43,4.30
2018,04,04,07,44,4.30
2018,04,04,07,45,4.30
2018,04,04,07,46,4.30
2018,04,04,07,47,4.30
2018,04,04,07,48,4.40
2018,04,04,07,49,4.40
2018,04,04,07,50,4.40
2018,04,04,07,51,4.40
2018,04,04,07,52,4.40
2018,04,04,07,53,4.40
2018,04,04,07,54,4.40
2018,04,04,07,55,4.40
2018,04,04,07,56,4.40
2018,04,04,07,57,4.50
2018,04,04,07,58,4.50
2018,04,04,07,59,4.50
2018,04,04,08,00,4.60
2018,04,04,08,01,4.60
2018,04,04,08,02,4.60
2018,04,04,08,03,4.60
2018,04,04,08,04,4.60
2018,04,04,08,05,4.60
2018,04,04,08,06,4.60
2018,04,04,08,07,4.60
2018,04,04,08,08,4.70
2018,04,04,08,09,4.70
2018,04,04,08,10,4.70
2018,04,04,08,11,4.70
2018,04,04,08,12,4.70
2018,04,04,08,13,4.70
2018,04,04,08,14,4.70
2018,04,04,08,15,4.70
2018,04,04,08,16,4.70
2018,04,04,08,17,4.70
2018,04,04,08,18,4.70
2018,04,04,08,19,4.70
2018,04,04,08,20,4.70
2018,04,04,08,21,4.70
2018,04,04,08,22,4.70
2018,04,04,08,23,4.70
2018,04,04,08,24,4.70
2018,04,04,08,25,4.70
2018,04,04,08,26,4.80
2018,04,04,08,27,4.80
2018,04,04,08,28,4.80
2018,04,04,08,29,4.80
2018,04,04,08,30,4.80
2018,04,04,08,31,4.80
2018,04,04,08,32,4.80
2018,04,04,08,33,4.80
2018,04,04,08,34,4.90
2018,04,04,08,35,4.90
2018,04,04,08,36,5.00
2018,04,04,08,37,5.00
2018,04,04,08,38,5.10
2018,04,04,08,39,5.10
2018,04,04,08,40,5.20
2018,04,04,08,41,5.20
2018,04,04,08,42,5.20
2018,04,04,08,43,5.20
2018,04,04,08,44,5.30
2018,04,04,08,45,5.30
2018,04,04,08,46,5.30
2018,04,04,08,47,5.40
2018,04,04,08,48,5.40
2018,04,04,08,49,5.40
2018,04,04,08,50,5.50
2018,04,04,08,51,5.50
2018,04,04,08,52,5.50
2018,04,04,08,53,5.50
2018,04,04,08,54,5.50
2018,04,04,08,55,5.60
2018,04,04,08,56,5.60
2018,04,04,08,57,5.60
2018,04,04,08,58,5.60
2018,04,04,08,59,5.70
2018,04,04,09,00,5.70
2018,04,04,09,01,5.70
2018,04,04,09,02,5.70
2018,04,04,09,03,5.70
2018,04,04,09,04,5.70
2018,04,04,09,05,5.70
2018,04,04,09,06,5.70
2018,04,04,09,07,5.80
2018,04,04,09,08,5.80
2018,04,04,09,09,5.80
2018,04,04,09,10,5.80
2018,04,04,09,11,5.80
2018,04,04,09,12,5.80
2018,04,04,09,13,5.80
2018,04,04,09,14,5.90
2018,04,04,09,15,5.90
2018,04,04,09,16,5.90
2018,04,04,09,17,5.90
2018,04,04,09,18,5.90
2018,04,04,09,19,6.00
2018,04,04,09,20,6.00
2018,04,04,09,21,6.00
2018,04,04,09,22,6.00
2018,04,04,09,23,6.10
2018,04,04,09,24,6.10
2018,04,04,09,25,6.10
2018,04,04,09,26,6.20
2018,04,04,09,27,6.20
2018,04,04,09,28,6.20
2018,04,04,09,29,6.20
2018,04,04,09,30,6.20
2018,04,04,09,31,6.20
2018,04,04,09,32,6.20
2018,04,04,09,33,6.20
2018,04,04,09,34,6.20
2018,04,04,09,35,6.20
2018,04,04,09,36,6.20
2018,04,04,09,37,6.20
2018,04,04,09,38,6.20
2018,04,04,09,39,6.20
2018,04,04,09,40,6.20
2018,04,04,09,41,6.20
2018,04,04,09,42,6.20
2018,04,04,09,43,6.20
2018,04,04,09,44,6.20
2018,04,04,09,45,6.20
2018,04,04,09,46,6.20
2018,04,04,09,47,6.30
2018,04,04,09,48,6.30
2018,04,04,09,49,6.30
2018,04,04,09,50,6.30
2018,04,04,09,51,6.30
2018,04,04,09,52,6.30
2018,04,04,09,53,6.40
2018,04,04,09,54,6.40
2018,04,04,09,55,6.40
2018,04,04,09,56,6.40
2018,04,04,09,57,6.40
2018,04,04,09,58,6.40
2018,04,04,09,59,6.50
2018,04,04,10,00,6.50
2018,04,04,10,01,6.50
2018,04,04,10,02,6.50
2018,04,04,10,03,6.50
2018,04,04,10,04,6.60
2018,04,04,10,05,6.60
2018,04,04,10,06,6.60
2018,04,04,10,07,6.60
2018,04,04,10,08,6.60
2018,04,04,10,09,6.60
2018,04,04,10,10,6.70
2018,04,04,10,11,6.70
2018,04,04,10,12,6.70
2018,04,04,10,13,6.70
2018,04,04,10,14,6.70
2018,04,04,10,15,6.70
2018,04,04,10,16,6.70
2018,04,04,10,17,6.70
2018,04,04,10,18,6.80
2018,04,04,10,19,6.80
2018,04,04,10,20,6.80
2018,04,04,10,21,6.80
2018,04,04,10,22,6.80
2018,04,04,10,23,6.90
2018,04,04,10,24,6.90
2018,04,04,10,25,6.90
2018,04,04,10,26,6.90
2018,04,04,10,27,6.90
2018,04,04,10,28,6.90
2018,04,04,10,29,6.90
2018,04,04,10,30,6.90
2018,04,04,10,31,6.90
2018,04,04,10,32,7.00
2018,04,04,10,33,7.10
2018,04,04,10,34,7.10
2018,04,04,10,35,7.10
2018,04,04,10,36,7.10
2018,04,04,10,37,7.20
2018,04,04,10,38,7.20
2018,04,04,10,39,7.20
2018,04,04,10,40,7.20
2018,04,04,10,41,7.20
2018,04,04,10,42,7.20
2018,04,04,10,43,7.20
2018,04,04,10,44,7.20
2018,04,04,10,45,7.20
2018,04,04,10,46,7.20
2018,04,04,10,47,7.20
2018,04,04,10,48,7.20
2018,04,04,10,49,7.20
2018,04,04,10,50,7.20
2018,04,04,10,51,7.20
2018,04,04,10,52,7.20
2018,04,04,10,53,7.20
2018,04,04,10,54,7.20
2018,04,04,10,55,7.20
2018,04,04,10,56,7.10
2018,04,04,10,57,7.10
2018,04,04,10,58,7.10
2018,04,04,10,59,7.10
2018,04,04,11,00,7.10
2018,04,04,11,01,7.10
2018,04,04,11,02,7.00
2018,04,04,11,03,7.00
2018,04,04,11,04,7.00
2018,04,04,11,05,7.00
2018,04,04,11,06,7.00
2018,04,04,11,07,7.00
2018,04,04,11,08,7.00
2018,04,04,11,09,7.00
2018,04,04,11,10,7.00
2018,04,04,11,11,7.00
2018,04,04,11,12,7.00
2018,04,04,11,13,7.00
2018,04,04,11,14,7.00
2018,04,04,11,15,7.00
2018,04,04,11,16,6.90
2018,04,04,11,17,6.90
2018,04,04,11,18,6.90
2018,04,04,11,19,6.90
2018,04,04,11,20,6.90
2018,04,04,11,21,6.90
2018,04,04,11,22,6.90
2018,04,04,11,23,6.90
2018,04,04,11,24,6.90
2018,04,04,11,25,6.90
2018,04,04,11,26,6.90
2018,04,04,11,27,7.00
2018,04,04,11,28,7.00
2018,04,04,11,29,7.00
2018,04,04,11,30,7.00
2018,04,04,11,31,7.00
2018,04,04,11,32,7.00
2018,04,04,11,33,7.00
2018,04,04,11,34,7.10
2018,04,04,11,35,7.10
2018,04,04,11,36,7.10
2018,04,04,11,37,7.10
2018,04,04,11,38,7.10
2018,04,04,11,39,7.10
2018,04,04,11,40,7.20
2018,04,04,11,41,7.20
2018,04,04,11,42,7.20
2018,04,04,11,43,7.20
2018,04,04,11,44,7.20
2018,04,04,11,45,7.20
2018,04,04,11,46,7.20
2018,04,04,11,47,7.30
2018,04,04,11,48,7.30
2018,04,04,11,49,7.30
2018,04,04,11,50,7.30
2018,04,04,11,51,7.30
2018,04,04,11,52,7.40
2018,04,04,11,53,7.40
2018,04,04,11,54,7.40
2018,04,04,11,55,7.40
2018,04,04,11,56,7.40
2018,04,04,11,57,7.40
2018,04,04,11,58,7.40
2018,04,04,11,59,7.40
2018,04,04,12,00,7.40
2018,04,04,12,01,7.40
2018,04,04,12,02,7.50
2018,04,04,12,03,7.50
2018,04,04,12,04,7.50
2018,04,04,12,05,7.50
2018,04,04,12,06,7.50
2018,04,04,12,07,7.60
2018,04,04,12,08,7.50
2018,04,04,12,09,7.60
2018,04,04,12,10,7.60
2018,04,04,12,11,7.50
2018,04,04,12,12,7.50
2018,04,04,12,13,7.60
2018,04,04,12,14,7.50
2018,04,04,12,15,7.50
2018,04,04,12,16,7.50
2018,04,04,12,17,7.50
2018,04,04,12,18,7.50
2018,04,04,12,19,7.50
2018,04,04,12,20,7.60
2018,04,04,12,21,7.60
2018,04,04,12,22,7.60
2018,04,04,12,23,7.60
2018,04,04,12,24,7.60
2018,04,04,12,25,7.60
2018,04,04,12,26,7.60
2018,04,04,12,27,7.60
2018,04,04,12,28,7.60
2018,04,04,12,29,7.60
2018,04,04,12,30,7.60
2018,04,04,12,31,7.60
2018,04,04,12,32,7.60
2018,04,04,12,33,7.60
2018,04,04,12,34,7.60
2018,04,04,12,35,7.60
2018,04,04,12,36,7.50
2018,04,04,12,37,7.50
2018,04,04,12,38,7.50
2018,04,04,12,39,7.40
2018,04,04,12,40,7.40
2018,04,04,12,41,7.40
2018,04,04,12,42,7.30
2018,04,04,12,43,7.30
2018,04,04,12,44,7.30
2018,04,04,12,45,7.20
2018,04,04,12,46,7.20
2018,04,04,12,47,7.20
2018,04,04,12,48,7.20
2018,04,04,12,49,7.20
2018,04,04,12,50,7.20
2018,04,04,12,51,7.20
2018,04,04,12,52,7.10
2018,04,04,12,53,7.10
2018,04,04,12,54,7.10
2018,04,04,12,55,7.10
2018,04,04,12,56,7.10
2018,04,04,12,57,7.10
2018,04,04,12,58,7.10
2018,04,04,12,59,7.00
2018,04,04,13,00,7.00
2018,04,04,13,01,7.00
2018,04,04,13,02,7.10
2018,04,04,13,03,7.10
2018,04,04,13,04,7.00
2018,04,04,13,05,7.00
2018,04,04,13,06,7.00
2018,04,04,13,07,7.10
2018,04,04,13,08,7.10
2018,04,04,13,09,7.10
2018,04,04,13,10,7.10
2018,04,04,13,11,7.10
2018,04,04,13,12,7.10
2018,04,04,13,13,7.10
2018,04,04,13,14,7.10
2018,04,04,13,15,7.10
2018,04,04,13,16,7.10
2018,04,04,13,17,7.10
2018,04,04,13,18,7.10
2018,04,04,13,19,7.10
2018,04,04,13,20,7.10
2018,04,04,13,21,7.10
2018,04,04,13,22,7.10
2018,04,04,13,23,7.10
2018,04,04,13,24,7.00
2018,04,04,13,25,7.00
2018,04,04,13,26,7.00
2018,04,04,13,27,7.00
2018,04,04,13,28,7.00
2018,04,04,13,29,7.00
2018,04,04,13,30,7.00
2018,04,04,13,31,7.00
2018,04,04,13,32,7.00
2018,04,04,13,33,7.00
2018,04,04,13,34,7.00
2018,04,04,13,35,7.00
2018,04,04,13,36,7.00
2018,04,04,13,37,7.00
2018,04,04,13,38,7.00
2018,04,04,13,39,7.00
2018,04,04,13,40,7.00
2018,04,04,13,41,7.00
2018,04,04,13,42,7.00
2018,04,04,13,43,7.00
2018,04,04,13,44,7.00
2018,04,04,13,45,7.00
2018,04,04,13,46,7.00
2018,04,04,13,47,7.00
2018,04,04,13,48,7.00
2018,04,04,13,49,7.00
2018,04,04,13,50,7.00
2018,04,04,13,51,7.00
2018,04,04,13,52,6.90
2018,04,04,13,53,6.90
2018,04,04,13,54,6.80
2018,04,04,13,55,6.80
2018,04,04,13,56,6.80
2018,04,04,13,57,6.80
2018,04,04,13,58,6.80
2018,04,04,13,59,6.80
2018,04,04,14,00,6.80
2018,04,04,14,01,6.80
2018,04,04,14,02,6.80
2018,04,04,14,03,6.80
2018,04,04,14,04,6.80
2018,04,04,14,05,6.80
2018,04,04,14,06,6.80
2018,04,04,14,07,6.70
2018,04,04,14,08,6.70
2018,04,04,14,09,6.70
2018,04,04,14,10,6.70
2018,04,04,14,11,6.70
2018,04,04,14,12,6.70
2018,04,04,14,13,6.70
2018,04,04,14,14,6.70
2018,04,04,14,15,6.80
2018,04,04,14,16,6.80
2018,04,04,14,17,6.80
2018,04,04,14,18,6.80
2018,04,04,14,19,6.80
2018,04,04,14,20,6.80
2018,04,04,14,21,6.80
2018,04,04,14,22,6.70
2018,04,04,14,23,6.70
2018,04,04,14,24,6.70
2018,04,04,14,25,6.70
2018,04,04,14,26,6.70
2018,04,04,14,27,6.60
2018,04,04,14,28,6.60
2018,04,04,14,29,6.60
2018,04,04,14,30,6.60
2018,04,04,14,31,6.60
2018,04,04,14,32,6.60
2018,04,04,14,33,6.50
2018,04,04,14,34,6.50
2018,04,04,14,35,6.50
2018,04,04,14,36,6.50
2018,04,04,14,37,6.50
2018,04,04,14,38,6.50
2018,04,04,14,39,6.50
2018,04,04,14,40,6.60
2018,04,04,14,41,6.60
2018,04,04,14,42,6.60
2018,04,04,14,43,6.60
2018,04,04,14,44,6.70
2018,04,04,14,45,6.70
2018,04,04,14,46,6.70
2018,04,04,14,47,6.70
2018,04,04,14,48,6.70
2018,04,04,14,49,6.70
2018,04,04,14,50,6.70
2018,04,04,14,51,6.70
2018,04,04,14,52,6.70
2018,04,04,14,53,6.70
2018,04,04,14,54,6.70
2018,04,04,14,55,6.70
2018,04,04,14,56,6.70
2018,04,04,14,57,6.70
2018,04,04,14,58,6.70
2018,04,04,14,59,6.70
2018,04,04,15,00,6.70
2018,04,04,15,01,6.70
2018,04,04,15,02,6.70
2018,04,04,15,03,6.70
2018,04,04,15,04,6.70
2018,04,04,15,05,6.70
2018,04,04,15,06,6.70
2018,04,04,15,07,6.70
2018,04,04,15,08,6.60
2018,04,04,15,09,6.60
2018,04,04,15,10,6.60
2018,04,04,15,11,6.60
2018,04,04,15,12,6.60
2018,04,04,15,13,6.60
2018,04,04,15,14,6.60
2018,04,04,15,15,6.60
2018,04,04,15,16,6.60
2018,04,04,15,17,6.50
2018,04,04,15,18,6.50
2018,04,04,15,19,6.50
2018,04,04,15,20,6.50
2018,04,04,15,21,6.50
2018,04,04,15,22,6.50
2018,04,04,15,23,6.50
2018,04,04,15,24,6.50
2018,04,04,15,25,6.50
2018,04,04,15,26,6.50
2018,04,04,15,27,6.50
2018,04,04,15,28,6.50
2018,04,04,15,29,6.50
2018,04,04,15,30,6.50
2018,04,04,15,31,6.50
2018,04,04,15,32,6.50
2018,04,04,15,33,6.50
2018,04,04,15,34,6.50
2018,04,04,15,35,6.50
2018,04,04,15,36,6.50
2018,04,04,15,37,6.50
2018,04,04,15,38,6.50
2018,04,04,15,39,6.50
2018,04,04,15,40,6.50
2018,04,04,15,41,6.50
2018,04,04,15,42,6.50
2018,04,04,15,43,6.50
2018,04,04,15,44,6.50
2018,04,04,15,45,6.50
2018,04,04,15,46,6.50
2018,04,04,15,47,6.50
2018,04,04,15,48,6.50
2018,04,04,15,49,6.50
2018,04,04,15,50,6.50
2018,04,04,15,51,6.50
2018,04,04,15,52,6.50
2018,04,04,15,53,6.40
2018,04,04,15,54,6.40
2018,04,04,15,55,6.40
2018,04,04,15,56,6.40
2018,04,04,15,57,6.40
2018,04,04,15,58,6.40
2018,04,04,15,59,6.40
2018,04,04,16,00,6.40
2018,04,04,16,01,6.40
2018,04,04,16,02,6.40
2018,04,04,16,03,6.40
2018,04,04,16,04,6.40
2018,04,04,16,05,6.40
2018,04,04,16,06,6.40
2018,04,04,16,07,6.40
2018,04,04,16,08,6.30
2018,04,04,16,09,6.30
2018,04,04,16,10,6.30
2018,04,04,16,11,6.30
2018,04,04,16,12,6.30
2018,04,04,16,13,6.30
2018,04,04,16,14,6.30
2018,04,04,16,15,6.30
2018,04,04,16,16,6.30
2018,04,04,16,17,6.30
2018,04,04,16,18,6.30
2018,04,04,16,19,6.30
2018,04,04,16,20,6.30
2018,04,04,16,21,6.30
2018,04,04,16,22,6.30
2018,04,04,16,23,6.30
2018,04,04,16,24,6.30
2018,04,04,16,25,6.30
2018,04,04,16,26,6.30
2018,04,04,16,27,6.30
2018,04,04,16,28,6.30
2018,04,04,16,29,6.30
2018,04,04,16,30,6.30
2018,04,04,16,31,6.30
2018,04,04,16,32,6.30
2018,04,04,16,33,6.30
2018,04,04,16,34,6.30
2018,04,04,16,35,6.30
2018,04,04,16,36,6.30
2018,04,04,16,37,6.30
2018,04,04,16,38,6.30
2018,04,04,16,39,6.30
2018,04,04,16,40,6.30
2018,04,04,16,41,6.30
2018,04,04,16,42,6.30
2018,04,04,16,43,6.30
2018,04,04,16,44,6.30
2018,04,04,16,45,6.30
2018,04,04,16,46,6.30
2018,04,04,16,47,6.30
2018,04,04,16,48,6.30
2018,04,04,16,49,6.30
2018,04,04,16,50,6.20
2018,04,04,16,51,6.20
2018,04,04,16,52,6.20
2018,04,04,16,53,6.30
2018,04,04,16,54,6.30
2018,04,04,16,55,6.30
2018,04,04,16,56,6.30
2018,04,04,16,57,6.30
2018,04,04,16,58,6.20
2018,04,04,16,59,6.20
2018,04,04,17,00,6.20
2018,04,04,17,01,6.20
2018,04,04,17,02,6.20
2018,04,04,17,03,6.20
2018,04,04,17,04,6.20
2018,04,04,17,05,6.20
2018,04,04,17,06,6.20
2018,04,04,17,07,6.20
2018,04,04,17,08,6.20
2018,04,04,17,09,6.20
2018,04,04,17,10,6.20
2018,04,04,17,11,6.20
2018,04,04,17,12,6.20
2018,04,04,17,13,6.20
2018,04,04,17,14,6.10
2018,04,04,17,15,6.10
2018,04,04,17,16,6.10
2018,04,04,17,17,6.10
2018,04,04,17,18,6.10
2018,04,04,17,19,6.10
2018,04,04,17,20,6.10
2018,04,04,17,21,6.10
2018,04,04,17,22,6.10
2018,04,04,17,23,6.10
2018,04,04,17,24,6.10
2018,04,04,17,25,6.10
2018,04,04,17,26,6.00
2018,04,04,17,27,6.00
2018,04,04,17,28,6.00
2018,04,04,17,29,6.00
2018,04,04,17,30,6.00
2018,04,04,17,31,6.00
2018,04,04,17,32,5.90
2018,04,04,17,33,5.90
2018,04,04,17,34,5.90
2018,04,04,17,35,5.90
2018,04,04,17,36,5.90
2018,04,04,17,37,5.90
2018,04,04,17,38,5.90
2018,04,04,17,39,5.90
2018,04,04,17,40,5.90
2018,04,04,17,41,5.90
2018,04,04,17,42,5.90
2018,04,04,17,43,5.90
2018,04,04,17,44,5.90
2018,04,04,17,45,5.90
2018,04,04,17,46,5.90
2018,04,04,17,47,5.90
2018,04,04,17,48,5.90
2018,04,04,17,49,5.90
2018,04,04,17,50,5.80
2018,04,04,17,51,5.90
2018,04,04,17,52,5.80
2018,04,04,17,53,5.80
2018,04,04,17,54,5.80
2018,04,04,17,55,5.80
2018,04,04,17,56,5.80
2018,04,04,17,57,5.80
2018,04,04,17,58,5.80
2018,04,04,17,59,5.80
2018,04,04,18,00,5.80
2018,04,04,18,01,5.80
2018,04,04,18,02,5.80
2018,04,04,18,03,5.80
2018,04,04,18,04,5.80
2018,04,04,18,05,5.80
2018,04,04,18,06,5.80